Hollister Municipal Airport, CA

1:28 PM PST on January 22, 2018 (GMT -0800)
Hollister Municipal

Weather History for KCVH - December, 2013

Change the Weather History Date:

Friday, December 6, 2013

  Actual Average (KSNS) Record (KSNS)
Temperature  
Mean Temperature 38 °F -  
Max Temperature 53 °F 64 °F 79 °F (1937)
Min Temperature 23 °F 41 °F 30 °F (1934)
Degree Days  
Heating Degree Days 27    
Moisture  
Dew Point 27 °F    
Average Humidity 59    
Maximum Humidity 82    
Minimum Humidity 44    
Precipitation  
Precipitation 0.00 in - - ()
Sea Level Pressure  
Sea Level Pressure 30.15 in    
Wind  
Wind Speed 2 mph (SSW)    
Max Wind Speed 14 mph    
Max Gust Speed 17 mph    
Visibility 10 miles    
Events      
Averages and records for this station are not official NWS values.
T = Trace of Precipitation, MM = Missing Value Source: NWS Daily Summary

Daily Weather History Graph

Daily Weather History Graph

Search for Another Location

Airport or City:

Trip Planner

Search our weather history database for the weather conditions in past years. The results will help you decide how hot, cold, wet, or windy it might be!

Date:

Astronomy

Dec. 06, 2013 Rise Set
Actual Time 7:04 AM PST 4:48 PM PST
Civil Twilight 6:35 AM PST 5:17 PM PST
Nautical Twilight 6:03 AM PST 5:49 PM PST
Astronomical Twilight 5:32 AM PST 6:21 PM PST
Moon 10:17 AM PST (12/6) 9:22 PM PST (12/6)
Length of Visible Light 10h 41m
Length of Day
9h 44m
Waxing Crescent, 20% of the Moon is Illuminated
Dec 6
Waxing Crescent
Dec 9
First Quarter
Dec 17
Full
Dec 25
Last Quarter
Jan 1
New

Hourly Weather History & Observations

Time (PST) Temp. Windchill Dew Point Humidity Pressure Visibility Wind Dir Wind Speed Gust Speed Precip Events Conditions
12:10 AM 32.0 °F - 19.4 °F 60% 30.19 in 10.0 mi Calm Calm - N/A   Clear
12:30 AM 32.0 °F - 19.4 °F 60% 30.19 in 10.0 mi Calm Calm - N/A   Clear
12:50 AM 30.2 °F - 21.2 °F 69% 30.19 in 10.0 mi Calm Calm - N/A   Clear
1:10 AM 30.2 °F - 19.4 °F 64% 30.18 in 10.0 mi Calm Calm - N/A   Clear
1:30 AM 32.0 °F - 19.4 °F 60% 30.19 in 10.0 mi Calm Calm - N/A   Clear
1:50 AM 32.0 °F - 19.4 °F 60% 30.19 in 10.0 mi Calm Calm - N/A   Clear
2:10 AM 32.0 °F 27.5 °F 19.4 °F 60% 30.20 in 10.0 mi East 4.6 mph - N/A   Clear
2:30 AM 28.4 °F - 17.6 °F 64% 30.20 in 10.0 mi Calm Calm - N/A   Clear
2:50 AM 30.2 °F - 19.4 °F 64% 30.20 in 10.0 mi Calm Calm - N/A   Clear
3:10 AM 28.4 °F - 17.6 °F 64% 30.20 in 10.0 mi Calm Calm - N/A   Clear
3:30 AM 28.4 °F - 17.6 °F 64% 30.20 in 10.0 mi Calm Calm - N/A   Clear
3:50 AM 28.4 °F - 19.4 °F 69% 30.19 in 10.0 mi Calm Calm - N/A   Clear
4:10 AM 28.4 °F - 19.4 °F 69% 30.19 in 10.0 mi Calm Calm - N/A   Clear
4:30 AM 28.4 °F - 19.4 °F 69% 30.19 in 10.0 mi Calm Calm - N/A   Clear
4:50 AM 28.4 °F - 19.4 °F 69% 30.19 in 10.0 mi Calm Calm - N/A   Clear
5:10 AM 26.6 °F - 19.4 °F 74% 30.19 in 10.0 mi Calm Calm - N/A   Clear
5:30 AM 26.6 °F - 17.6 °F 69% 30.19 in 10.0 mi Calm Calm - N/A   Clear
5:50 AM 23.0 °F - 14.0 °F 68% 30.19 in 10.0 mi Calm Calm - N/A   Clear
6:10 AM 24.8 °F - 17.6 °F 74% 30.19 in 10.0 mi Calm Calm - N/A   Clear
6:30 AM 24.8 °F - 17.6 °F 74% 30.20 in 10.0 mi Calm Calm - N/A   Clear
6:50 AM 26.6 °F - 17.6 °F 69% 30.20 in 10.0 mi Calm Calm - N/A   Clear
7:10 AM 24.8 °F - 17.6 °F 74% 30.20 in 10.0 mi Calm Calm - N/A   Scattered Clouds
7:30 AM 26.6 °F - 19.4 °F 74% 30.21 in 10.0 mi Calm Calm - N/A   Partly Cloudy
7:50 AM 26.6 °F - 19.4 °F 74% 30.21 in 10.0 mi Calm Calm - N/A   Clear
8:10 AM 28.4 °F - 19.4 °F 69% 30.21 in 10.0 mi Calm Calm - N/A   Scattered Clouds
8:30 AM 30.2 °F - 21.2 °F 69% 30.22 in 10.0 mi Calm Calm - N/A   Mostly Cloudy
8:50 AM 32.0 °F - 21.2 °F 64% 30.22 in 10.0 mi Calm Calm - N/A   Partly Cloudy
9:10 AM 32.0 °F - 21.2 °F 64% 30.22 in 10.0 mi Calm Calm - N/A   Clear
9:30 AM 33.8 °F - 23.0 °F 65% 30.22 in 10.0 mi Calm Calm - N/A   Clear
9:50 AM 35.6 °F - 23.0 °F 60% 30.22 in 10.0 mi Calm Calm - N/A   Clear
10:10 AM 37.4 °F - 23.0 °F 56% 30.22 in 10.0 mi Calm Calm - N/A   Clear
10:30 AM 39.2 °F - 23.0 °F 52% 30.22 in 10.0 mi Calm Calm - N/A   Clear
10:50 AM 41.0 °F - 24.8 °F 53% 30.21 in 10.0 mi Calm Calm - N/A   Clear
11:10 AM 42.8 °F - 26.6 °F 53% 30.21 in 10.0 mi Calm Calm - N/A   Clear
11:30 AM 44.6 °F - 28.4 °F 53% 30.20 in 10.0 mi Calm Calm - N/A   Clear
11:50 AM 46.4 °F - 28.4 °F 50% 30.19 in 10.0 mi Calm Calm - N/A   Clear
12:10 PM 50.0 °F - 32.0 °F 50% 30.18 in 10.0 mi Calm Calm - N/A   Clear
12:30 PM 51.8 °F - 32.0 °F 47% 30.17 in 10.0 mi Calm Calm - N/A   Clear
12:50 PM 51.8 °F - 32.0 °F 47% 30.16 in 10.0 mi Calm Calm - N/A   Clear
1:10 PM 51.8 °F - 32.0 °F 47% 30.15 in 10.0 mi Calm Calm - N/A   Clear
1:30 PM 51.8 °F - 32.0 °F 47% 30.14 in 10.0 mi Calm Calm - N/A   Clear
1:50 PM 53.6 °F - 32.0 °F 44% 30.13 in 10.0 mi West 8.1 mph - N/A   Clear
2:10 PM 53.6 °F - 32.0 °F 44% 30.12 in 10.0 mi WSW 9.2 mph - N/A   Clear
2:30 PM 53.6 °F - 33.8 °F 47% 30.12 in 10.0 mi West 10.4 mph - N/A   Clear
2:50 PM 53.6 °F - 32.0 °F 44% 30.12 in 10.0 mi West 6.9 mph - N/A   Clear
3:10 PM 53.6 °F - 33.8 °F 47% 30.13 in 10.0 mi WSW 11.5 mph - N/A   Clear
3:30 PM 53.6 °F - 33.8 °F 47% 30.12 in 10.0 mi SW 13.8 mph - N/A   Clear
3:50 PM 51.8 °F - 33.8 °F 50% 30.12 in 10.0 mi SW 12.7 mph - N/A   Clear
4:10 PM 51.8 °F - 33.8 °F 50% 30.12 in 10.0 mi SW 12.7 mph - N/A   Clear
4:30 PM 50.0 °F - 32.0 °F 50% 30.12 in 10.0 mi WSW 10.4 mph - N/A   Scattered Clouds
4:50 PM 50.0 °F - 32.0 °F 50% 30.12 in 10.0 mi WSW 8.1 mph - N/A   Overcast
5:10 PM 48.2 °F - 32.0 °F 54% 30.12 in 10.0 mi Calm Calm - N/A   Overcast
5:30 PM 48.2 °F - 32.0 °F 54% 30.12 in 10.0 mi SW 5.8 mph - N/A   Overcast
5:50 PM 48.2 °F - 32.0 °F 54% 30.11 in 10.0 mi Calm Calm - N/A   Overcast
6:10 PM 48.2 °F - 32.0 °F 54% 30.10 in 10.0 mi SW 4.6 mph - N/A   Overcast
6:30 PM 48.2 °F - 32.0 °F 54% 30.10 in 10.0 mi Calm Calm - N/A   Mostly Cloudy
6:50 PM 48.2 °F - 32.0 °F 54% 30.09 in 10.0 mi Calm Calm - N/A   Mostly Cloudy
7:10 PM 48.2 °F - 32.0 °F 54% 30.09 in 10.0 mi Calm Calm - N/A   Overcast
7:30 PM 48.2 °F - 30.2 °F 50% 30.09 in 10.0 mi Calm Calm - N/A   Overcast
7:50 PM 48.2 °F - 32.0 °F 54% 30.08 in 10.0 mi Calm Calm - N/A   Overcast
8:10 PM 48.2 °F - 32.0 °F 54% 30.07 in 10.0 mi Calm Calm - N/A   Overcast
8:30 PM 48.2 °F - 33.8 °F 58% 30.07 in 10.0 mi Calm Calm - N/A   Overcast
8:50 PM 46.4 °F - 33.8 °F 62% 30.07 in 10.0 mi Calm Calm - N/A   Mostly Cloudy
9:10 PM 48.2 °F - 35.6 °F 62% 30.05 in 10.0 mi SSE 6.9 mph - N/A   Mostly Cloudy
9:30 PM 48.2 °F - 37.4 °F 66% 30.05 in 10.0 mi SE 10.4 mph - N/A   Overcast
9:50 PM 48.2 °F - 37.4 °F 66% 30.04 in 10.0 mi SSE 6.9 mph - N/A   Overcast
10:10 PM 50.0 °F - 37.4 °F 62% 30.03 in 10.0 mi SSE 10.4 mph - N/A   Overcast
10:30 PM 51.8 °F - 37.4 °F 58% 30.03 in 10.0 mi South 9.2 mph - N/A   Overcast
10:50 PM 50.0 °F - 37.4 °F 62% 30.01 in 10.0 mi South 8.1 mph - N/A   Overcast
11:10 PM 51.8 °F - 37.4 °F 58% 30.00 in 10.0 mi SE 4.6 mph - N/A   Overcast
11:30 PM 51.8 °F - 39.2 °F 62% 29.99 in 10.0 mi South 10.4 mph - N/A   Overcast
11:50 PM 50.0 °F - 44.6 °F 82% 29.98 in 5.0 mi South 11.5 mph 17.3 mph N/A   Mostly Cloudy